Theta_e
308 306 306 306 310 310 309 309 306 301 302 302 304 309 310 309 313 314 312 316 321 317 317 317 316 316 314 313 312 311 310 310 310 310 312 313 314 314
308 310 306 310 309 311 309 307 309 303 298 304 306 310 311 312 313 315 312 317 318 316 315 314 315 315 315 314 312 310 310 309 309 309 309 310 312 313
309 309 311 308 305 309 309 309 309 309 305 306 308 307 307 305 306 308 308 304 305 315 316 315 314 313 313 313 313 311 310 310 309 309 308 308 309 311
309 308 311 311 309 309 309 309 309 310 307 303 305 304 302 303 303 303 304 306 302 309 315 315 314 313 312 312 312 311 310 310 310 309 308 308 308 308
311 310 310 311 309 309 309 309 308 310 308 305 303 302 302 302 301 302 303 300 304 311 312 312 311 311 312 312 311 310 308 307 307 308 307 307 306 307
313 312 312 311 310 309 310 309 309 307 307 304 302 298 298 299 299 297 295 296 297 303 306 307 309 309 310 310 312 312 309 307 306 306 305 305 305 306
314 313 313 313 315 313 311 309 308 307 305 301 298 296 298 296 295 295 293 294 296 296 298 298 299 300 301 306 308 310 308 308 306 305 305 303 302 303
311 312 312 314 313 312 312 313 311 305 302 302 299 296 294 296 295 294 293 291 290 295 295 296 297 299 300 301 306 307 306 306 306 305 303 302 302 301
312 311 311 313 312 312 311 310 309 309 309 304 300 296 295 298 296 293 292 291 291 294 295 293 295 296 299 302 304 305 305 304 304 303 302 302 301 300
313 311 311 310 310 310 309 308 309 309 309 309 303 301 300 302 298 296 294 293 293 294 295 291 294 295 298 298 305 306 305 304 303 303 302 301 300 299
311 311 309 309 305 304 308 307 307 309 311 308 305 302 301 301 301 295 293 291 290 291 294 293 293 294 294 295 301 305 304 304 303 303 302 301 300 299
309 309 307 307 303 301 306 306 305 307 307 302 301 301 300 300 302 297 297 293 290 290 293 293 291 292 292 294 296 297 298 302 303 302 302 301 300 297
307 307 308 302 300 299 300 306 304 305 304 299 299 297 297 297 297 298 299 295 292 292 296 295 291 291 291 291 293 296 297 300 301 299 301 300 300 300
307 308 308 301 299 299 300 300 299 301 298 295 293 292 292 295 297 298 298 297 298 298 298 296 294 292 290 289 290 293 296 295 295 298 299 301 301 300
309 307 303 300 298 298 298 297 297 299 297 293 291 291 292 296 297 298 300 297 297 299 302 297 296 295 294 292 291 291 293 296 299 295 296 297 297 298
307 307 305 302 300 300 300 299 299 298 295 292 291 292 294 297 299 298 296 295 294 295 298 298 297 297 294 294 293 292 293 295 297 297 296 297 296 296
306 305 302 300 300 300 299 299 298 296 294 295 295 294 295 296 295 295 295 295 292 290 292 293 295 297 296 293 291 291 292 294 297 296 295 294 294 296
304 303 300 300 301 301 300 299 296 297 294 294 294 294 294 293 295 294 294 291 290 289 292 292 294 293 293 294 297 291 291 291 292 293 292 291 292 294
303 302 300 298 298 297 296 296 296 296 295 295 294 293 292 294 293 293 293 292 291 291 292 293 292 290 288 287 294 299 292 291 291 291 291 291 291 293
298 297 297 297 296 295 293 292 293 292 292 292 292 292 293 294 294 293 293 292 292 292 289 292 290 289 287 286 287 294 295 292 290 290 290 291 292 295
298 297 297 295 294 293 293 293 292 291 291 291 291 292 292 292 290 290 292 290 290 292 289 292 293 287 290 290 288 289 292 296 296 292 291 289 289 290
296 296 296 295 293 293 291 291 290 290 290 290 290 290 290 289 288 287 287 291 292 293 292 291 289 289 289 289 286 287 289 294 299 300 299 298 294 292
294 295 294 294 293 291 291 290 290 289 290 289 289 287 287 285 286 289 290 292 292 289 286 286 287 288 288 288 287 287 291 294 296 297 297 299 299 299
Wind_Speed
4 3 2 1 0 2 2 2 3 0 2 2 1 3 2 3 5 5 6 8 10 7 9 9 8 10 13 12 11 11 11 11 12 13 14 16 16 16
3 4 2 2 2 1 1 3 2 3 1 3 4 2 4 4 6 4 6 7 8 7 8 7 9 11 12 12 10 11 10 10 11 11 12 13 14 13
4 5 5 3 3 2 1 1 1 2 2 3 2 2 2 4 5 4 2 1 3 6 9 10 11 12 13 13 11 12 11 10 12 11 11 11 13 13
7 5 5 3 4 3 1 2 1 1 2 4 2 1 1 5 1 4 3 3 2 6 10 12 11 13 15 14 13 12 9 10 13 11 10 10 11 12
7 6 6 6 4 2 1 1 1 2 2 2 3 1 2 0 2 2 3 3 4 10 8 8 7 9 9 10 11 11 9 11 12 10 8 9 9 9
8 7 7 7 6 5 3 2 2 2 3 3 1 3 1 1 1 1 3 2 4 3 6 5 9 8 9 10 11 10 9 10 10 7 6 7 7 7
7 7 6 7 10 7 3 2 3 4 1 3 2 2 2 1 2 1 2 2 4 2 3 4 3 4 4 7 7 8 10 7 7 5 5 6 6 5
8 7 6 13 8 6 6 8 7 5 4 3 3 4 3 3 3 3 1 2 3 2 2 5 1 3 4 4 9 9 10 6 6 4 5 5 6 6
10 8 8 7 8 6 9 8 7 9 10 5 6 6 4 6 5 3 3 3 4 4 1 4 2 3 3 4 9 9 7 5 4 5 6 6 7 7
10 10 12 10 8 7 5 5 6 6 6 6 8 8 7 4 5 6 5 3 4 4 3 2 2 3 4 4 7 7 5 6 7 7 8 8 8 7
8 10 10 7 9 11 6 6 5 6 6 13 12 12 9 10 8 5 2 2 3 3 2 3 3 3 2 3 3 8 8 8 8 9 9 9 9 8
6 7 10 8 11 11 6 5 6 7 4 3 2 2 5 4 11 7 5 5 3 3 3 3 2 0 4 2 3 3 4 7 8 8 11 11 9 3
6 6 5 11 10 10 9 5 6 3 4 3 2 3 3 3 5 6 5 5 4 5 5 3 2 1 2 3 3 3 2 4 4 5 8 8 5 7
7 5 6 11 12 9 5 9 10 6 3 3 2 3 3 4 5 6 7 7 5 7 1 6 3 4 3 1 3 3 3 4 2 3 3 6 5 6
3 6 8 9 6 3 6 7 5 4 4 3 4 4 3 4 3 1 3 5 6 6 8 7 6 4 4 4 3 3 2 3 2 2 3 3 2 1
5 3 3 4 5 4 5 5 4 5 5 5 5 4 3 2 3 3 3 2 2 4 3 5 6 5 3 4 4 4 4 3 2 2 2 3 2 2
3 1 1 1 2 3 4 5 4 4 5 5 4 4 4 2 3 2 2 1 0 2 3 3 4 1 2 2 2 3 2 1 2 2 2 3 3 3
3 3 2 3 4 4 4 6 4 6 5 5 4 4 3 3 3 1 2 3 3 1 2 3 3 3 3 2 3 1 1 1 2 2 1 1 3 4
2 2 3 4 4 4 5 3 2 1 3 3 3 3 2 2 4 3 2 3 2 3 2 2 2 1 1 1 3 2 1 1 2 3 1 3 3 5
2 2 4 4 4 4 1 1 2 3 3 3 3 3 4 4 4 3 1 2 2 3 2 2 1 1 3 4 2 4 3 2 2 2 2 2 4 7
2 4 4 4 1 2 3 4 4 3 4 5 4 4 4 3 3 3 3 3 2 2 3 3 2 3 2 1 1 3 5 6 7 5 3 1 2 4
3 4 1 3 5 4 4 5 5 5 4 4 4 4 3 3 2 2 1 1 1 0 2 1 2 0 1 2 2 3 3 4 5 1 7 6 1 2
1 4 6 6 5 4 5 5 5 4 4 4 4 3 3 2 2 2 0 1 0 2 1 1 1 0 2 3 4 3 4 3 1 3 6 12 11 10
Wind_Direction
189 187 168 185 104 85 121 120 137 201 278 304 304 263 282 287 261 229 219 226 233 238 260 262 258 245 258 272 293 305 309 313 317 318 317 308 300 293
212 211 184 185 167 113 103 78 76 133 243 213 234 295 322 302 304 280 223 238 254 237 247 246 247 248 259 267 278 282 290 301 302 306 311 313 313 300
213 226 239 194 199 199 44 55 116 146 180 301 38 277 270 37 350 19 84 197 271 269 258 255 254 256 262 267 265 268 275 285 293 296 303 311 309 308
220 217 228 224 220 193 127 56 241 195 149 236 266 286 92 62 18 48 25 29 321 283 277 267 276 266 263 264 259 256 265 273 276 284 295 306 310 302
214 206 213 204 209 188 196 108 224 176 184 181 260 307 60 345 49 352 6 336 304 307 300 303 322 311 288 271 266 265 259 264 265 271 284 296 306 303
214 212 209 194 189 179 201 196 219 268 224 234 30 252 202 245 61 69 332 316 291 302 298 304 299 311 312 301 300 284 264 256 263 257 277 289 300 299
222 200 169 191 175 144 132 238 225 242 254 234 224 252 220 227 209 213 242 274 285 249 298 297 302 303 302 300 299 304 305 283 270 266 281 294 294 290
208 176 168 191 171 178 219 226 224 213 216 196 203 222 225 210 188 187 183 3 318 281 317 299 277 299 292 301 288 282 304 300 285 285 292 298 288 282
205 193 182 185 176 194 214 235 231 230 233 214 222 215 206 208 182 159 198 204 234 265 135 284 324 300 289 308 321 306 281 285 278 280 281 281 272 267
207 186 183 180 187 196 207 226 230 238 242 226 214 234 211 193 200 169 185 223 286 275 159 255 292 276 312 323 328 340 327 284 260 258 254 256 263 269
197 187 183 174 187 218 216 233 257 264 237 242 223 232 217 193 169 121 201 165 279 275 255 171 272 282 303 311 313 340 333 300 268 254 248 248 247 251
180 176 177 195 199 218 213 222 247 263 272 280 287 300 232 201 184 189 173 202 195 311 249 159 263 275 345 295 300 312 316 290 272 264 267 257 242 251
179 177 192 214 230 234 231 231 221 204 247 242 281 294 297 239 221 226 192 180 192 230 228 157 228 202 166 285 303 293 270 301 311 307 308 299 247 197
189 178 191 209 229 229 224 231 229 201 190 232 263 264 235 262 243 210 210 215 213 215 209 175 227 184 182 244 262 313 304 296 274 296 311 304 323 225
179 180 190 210 242 283 264 249 212 201 193 209 230 247 222 242 232 221 238 245 249 244 250 192 201 211 186 208 230 247 332 303 291 291 305 300 290 333
178 171 193 226 240 239 269 233 208 198 192 210 221 223 253 239 218 180 209 208 218 283 261 231 213 172 193 224 188 253 201 254 281 311 288 296 323 270
164 160 250 259 265 253 262 247 227 191 206 211 211 214 238 211 240 190 229 123 94 288 318 348 6 167 215 219 263 235 223 242 289 309 350 319 306 292
171 189 229 234 255 266 253 260 207 210 211 200 205 194 223 199 194 126 112 119 110 41 39 356 356 13 13 351 125 130 44 251 285 325 313 255 294 293
182 185 232 242 253 260 265 236 231 222 166 178 177 185 154 91 119 92 82 95 124 76 49 8 5 90 85 286 283 82 131 281 318 315 248 223 239 276
149 225 253 249 257 272 205 202 112 93 88 106 104 109 110 115 119 140 153 137 158 212 245 192 176 157 160 206 246 280 267 212 202 252 278 286 259 292
216 245 236 245 279 124 117 112 110 101 100 100 89 92 92 112 129 147 148 169 203 222 219 187 191 242 235 103 330 291 297 236 210 205 217 241 307 335
277 281 236 131 106 105 98 96 91 91 100 101 107 105 104 109 108 93 60 326 210 304 103 42 305 291 114 188 222 261 289 297 307 299 231 207 187 332
40 92 82 80 79 82 89 90 90 105 117 116 107 110 120 111 151 113 139 262 164 74 60 326 285 198 217 198 201 245 263 276 41 71 51 58 78 82